Regional Weather Roundup
Issued by NWS

Home | Current Version | Previous Version | Text Only | Print | Product List | Glossary Off
Versions: 1 2 3 4 5 6 7 8 9 10 11 12 13 14 15 16 17 18 19 20 21 22 23 24 25 26 27 28 29 30 31 32 33 34 35 36 37 38 39 40 41 42 43 44 45 46 47 48 49 50

000
ASUS45 KSLC 050010
RWRUT

UTAH REGIONAL WEATHER ROUNDUP
NATIONAL WEATHER SERVICE SALT LAKE CITY UT
600 PM MDT WED MAY 04 2016

UTZ001>011-023>025-050100-

NORTHERN UTAH

CITY           SKY/WX    TMP DP  RH WIND       PRES   REMARKS
BRIGHAM CITY   MOSUNNY   76  23  14 CALM      30.00F
HILL AFB       MOSUNNY   74  35  23 NW7       30.01F
LOGAN          MOSUNNY   73  40  30 N3        30.00F
OGDEN          MOSUNNY   77  33  20 NW8       29.99F
PROVO AIRPORT  PTSUNNY   75  34  22 W7        29.98F
SALT LAKE CITY PTSUNNY   81  28  14 S5G20     29.95F
VERNAL         SUNNY     74  25  16 W6        30.08F
WENDOVER       PTSUNNY   75  36  23 E9        29.96F
HEBER CITY     MOSUNNY   73  34  23 W9        30.03F

$$

UTZ012>022-026-027-050100-

SOUTHERN/CENTRAL UTAH

CITY           SKY/WX    TMP DP  RH WIND       PRES   REMARKS
BLANDING       SUNNY     73  27  18 SE3       30.21F
BRYCE CANYON   MOSUNNY   66  25  21 SE13      30.19F
CEDAR CITY     SUNNY     76  27  16 SW13G25   30.00F
DELTA          MOSUNNY   77  32  19 SW5       29.97F
HANKSVILLE     SUNNY     82  23  11 S14G22    30.04F
MILFORD        SUNNY     80  23  12 S21G26    29.97F
MOAB/CYNLANDS  SUNNY     81  26  13 S9        30.02F
PRICE          SUNNY     73  25  16 S12G25    30.10F
ST GEORGE      PTCLDY    88  30  12 W15       29.86F

$$

REGIONAL REPORTS     COLORADO/ARIZONA

CITY           SKY/WX    TMP DP  RH WIND       PRES   REMARKS
CRAIG, CO      CLOUDY    73  29  19 W9        30.14F
GRAND JUNCTION SUNNY     76  28  17 CALM      30.07F
RIFLE          SUNNY     76  25  15 W14       30.10F
MONTROSE       SUNNY     74  24  15 CALM      30.13F
CORTEZ         SUNNY     74  21  13 SW8       30.16F
PAGE, AZ       SUNNY     85  25  11 SE16      29.97F
GRAND CANYON   MOSUNNY   74  22  14 S16G22    30.13F
KINGMAN        SUNNY     89  22   8 S21G29    29.88F
FLAGSTAFF      SUNNY     70  23  17 W13G22    30.17S

$$

REGIONAL REPORTS    NEVADA/IDAHO/WYOMING

CITY           SKY/WX    TMP DP  RH WIND       PRES   REMARKS
LAS VEGAS, NV  MOSUNNY   91  23   8 S14G23    29.75F
ELY            PTSUNNY   69  21  16 S20G30    30.01F
ELKO           PTSUNNY   74  32  21 S12       29.93F
POCATELLO, ID  CLOUDY    74  34  23 S14G20    30.01F
BURLEY         PTSUNNY   75  32  20 S8        29.94F
EVANSTON, WY   CLOUDY    70  18  13 S17G23    30.13F
ROCK SPRINGS   SUNNY     68  21  16 S26       30.13F
KEMMERER         N/A     68  19  15 SE9       30.15F

$$



USA.gov is the U.S. government's official web portal to all federal, state and local government web resources and services.